There are multiple Weather-warnings   Click here for more information


Meteo18 Weather Cam more information Meteo18 Weather Cam


Thunder radar more information blitzortung!


warning for Snow/Ice more information rain snow radar


Visit our other weather sites:

Template documentation
and downloads

And another site



Weather Underground History page Text

Daily Summary for February 29, 2016 Units:  Metric    English   Both
« Previous Day
Next Day »
Daily Weekly Monthly Yearly Custom
  High: Low: Average:
Temperature: -17.8 °C -18 °C -16.3 °C
Dew Point: -17.8 °C -19.4 °C -18.3 °C
Humidity: Humidity % 57 % 77 %
Wind Speed: 0 km/h 0 km/h 11.6 km/h
Wind Gust: 0 km/h - -
Wind:- - ENE
Pressure: 0 hPa 34256.2 hPa -
Precipitation: 0 mm    
Historical Graphs
 
 
Tabular Data for February 29, 2016
Time Temperature Dew Point Pressure Wind Wind Speed Wind Gust Humidity Rainfall Rate (Hourly)
-17.8 °C -17.8 °C 0 hPa Calm     Humidity % 0 mm
00:02 -16.6 °C -18.2 °C 34256.2 hPa ENE 7.7 km/h 33.6 km/h 81 % 0 mm
00:12 -16.6 °C -18.2 °C 34256.2 hPa SE 15.6 km/h 33.6 km/h 81 % 0 mm
00:17 -16.6 °C -18.2 °C 34256.2 hPa NE 12.9 km/h 33.6 km/h 81 % 0 mm
00:22 -16.7 °C -18.3 °C 34256.2 hPa NE 10.3 km/h 33.6 km/h 81 % 0 mm
00:27 -16.7 °C -18.3 °C 34256.2 hPa NNE 20.8 km/h 28.5 km/h 81 % 0 mm
00:32 -16.7 °C -18.3 °C 34256.2 hPa NE 5.1 km/h 28.5 km/h 81 % 0 mm
00:42 -16.7 °C -18.4 °C 34256.2 hPa NE 15.6 km/h 25.9 km/h 80 % 0 mm
00:52 -16.7 °C -18.4 °C 34256.2 hPa ENE 18.2 km/h 33.6 km/h 80 % 0 mm
00:57 -16.7 °C -18.4 °C 34256.2 hPa NE 12.9 km/h 33.6 km/h 80 % 0 mm
01:02 -16.8 °C -18.4 °C 34256.2 hPa East 12.9 km/h 33.6 km/h 81 % 0 mm
01:07 -16.8 °C -18.4 °C 34256.2 hPa NE 20.8 km/h 28.5 km/h 81 % 0 mm
01:12 -16.8 °C -18.4 °C 34256.2 hPa ENE 12.9 km/h 28.5 km/h 81 % 0 mm
01:17 -16.8 °C -18.4 °C 34256.2 hPa East 12.9 km/h 36.2 km/h 81 % 0 mm
01:22 -16.8 °C -18.4 °C 34256.2 hPa NE 5.1 km/h 36.2 km/h 81 % 0 mm
01:27 -16.8 °C -18.4 °C 34256.2 hPa NNE 25.9 km/h 36.2 km/h 81 % 0 mm
01:32 -16.8 °C -18.4 °C 34256.2 hPa ESE 10.3 km/h 36.2 km/h 81 % 0 mm
01:37 -16.8 °C -18.6 °C 34256.2 hPa NE 20.8 km/h 36.2 km/h 80 % 0 mm
01:42 -16.8 °C -18.6 °C 34256.2 hPa NE 18.2 km/h 36.2 km/h 80 % 0 mm
01:47 -16.8 °C -18.6 °C 34256.2 hPa ESE 12.9 km/h 36.2 km/h 80 % 0 mm
01:52 -16.8 °C -18.6 °C 34256.2 hPa ENE 7.7 km/h 36.2 km/h 80 % 0 mm
01:57 -16.9 °C -18.6 °C 34256.2 hPa ESE 10.3 km/h 28.5 km/h 80 % 0 mm
02:02 -16.9 °C -18.6 °C 34256.2 hPa ESE 20.8 km/h 33.6 km/h 80 % 0 mm
02:07 -16.9 °C -18.6 °C 34269.7 hPa ENE 15.6 km/h 33.6 km/h 80 % 0 mm
02:12 -16.9 °C -18.6 °C 34269.7 hPa East 18.2 km/h 33.6 km/h 80 % 0 mm
02:17 -16.9 °C -18.6 °C 34269.7 hPa ESE 7.7 km/h 38.8 km/h 80 % 0 mm
02:22 -16.9 °C -18.7 °C 34269.7 hPa NE 23.3 km/h 38.8 km/h 80 % 0 mm
02:27 -16.9 °C -18.6 °C 34269.7 hPa NE 18.2 km/h 33.6 km/h 80 % 0 mm
02:32 -16.9 °C -18.6 °C 34279.9 hPa NE 28.5 km/h 33.6 km/h 80 % 0 mm
02:37 -16.9 °C -18.6 °C 34279.9 hPa NNE 20.8 km/h 36.2 km/h 80 % 0 mm
02:42 -16.9 °C -18.6 °C 34279.9 hPa East 5.1 km/h 36.2 km/h 81 % 0 mm
02:47 -16.9 °C -18.7 °C 34279.9 hPa ESE 5.1 km/h 36.2 km/h 80 % 0 mm
02:52 -17 °C -18.6 °C 34279.9 hPa NE 15.6 km/h 36.2 km/h 81 % 0 mm
02:57 -17 °C -18.6 °C 34279.9 hPa NE 23.3 km/h 41.4 km/h 81 % 0 mm
03:02 -17 °C -18.6 °C 34279.9 hPa NE 18.2 km/h 41.4 km/h 81 % 0 mm
03:12 -17.1 °C -18.7 °C 34279.9 hPa NE 25.9 km/h 31.1 km/h 81 % 0 mm
03:17 -17.1 °C -18.7 °C 34279.9 hPa East 36.2 km/h 36.2 km/h 81 % 0 mm
03:22 -17.1 °C -18.7 °C 34269.7 hPa ENE 18.2 km/h 36.2 km/h 81 % 0 mm
03:27 -17.1 °C -18.8 °C 34269.7 hPa ENE 7.7 km/h 36.2 km/h 80 % 0 mm
03:32 -17.1 °C -18.7 °C 34269.7 hPa ENE 7.7 km/h 36.2 km/h 81 % 0 mm
03:42 -17.1 °C -18.8 °C 34279.9 hPa NNE 10.3 km/h 36.2 km/h 80 % 0 mm
03:47 -17.1 °C -18.8 °C 34279.9 hPa NE 7.7 km/h 36.2 km/h 80 % 0 mm
03:52 -17.1 °C -18.8 °C 34279.9 hPa ENE 23.3 km/h 36.2 km/h 80 % 0 mm
03:57 -17.1 °C -18.8 °C 34279.9 hPa NE 15.6 km/h 38.8 km/h 80 % 0 mm
04:02 -17.1 °C -18.8 °C 34279.9 hPa ENE 23.3 km/h 44.1 km/h 80 % 0 mm
04:07 -17.2 °C -18.8 °C 34293.4 hPa NNE 31.1 km/h 44.1 km/h 81 % 0 mm
04:12 -17.2 °C -18.8 °C 34293.4 hPa NE 10.3 km/h 44.1 km/h 81 % 0 mm
04:17 -17.2 °C -18.8 °C 34293.4 hPa East 18.2 km/h 44.1 km/h 81 % 0 mm
04:22 -17.3 °C -18.9 °C 34293.4 hPa NE 31.1 km/h 41.4 km/h 81 % 0 mm
04:27 -17.3 °C -18.9 °C 34293.4 hPa ENE 20.8 km/h 41.4 km/h 81 % 0 mm
04:32 -17.3 °C -18.8 °C 34293.4 hPa NNE 28.5 km/h 41.4 km/h 82 % 0 mm
04:42 -17.4 °C -18.9 °C 34303.6 hPa ENE 12.9 km/h 38.8 km/h 82 % 0 mm
04:47 -17.4 °C -18.9 °C 34303.6 hPa ENE 10.3 km/h 36.2 km/h 82 % 0 mm
04:52 -17.4 °C -18.9 °C 34313.7 hPa ESE 7.7 km/h 36.2 km/h 83 % 0 mm
04:57 -17.5 °C -18.9 °C 34313.7 hPa SSE 12.9 km/h 36.2 km/h 83 % 0 mm
05:02 -17.6 °C -18.9 °C 34313.7 hPa NNE 12.9 km/h 25.9 km/h 83 % 0 mm
05:12 -17.6 °C -18.9 °C 34313.7 hPa NE 10.3 km/h 31.1 km/h 83 % 0 mm
05:17 -17.6 °C -18.9 °C 34313.7 hPa South 7.7 km/h 31.1 km/h 83 % 0 mm
05:22 -17.6 °C -18.9 °C 34313.7 hPa ENE 10.3 km/h 31.1 km/h 83 % 0 mm
05:32 -17.6 °C -18.9 °C 34313.7 hPa NE 10.3 km/h 44.1 km/h 83 % 0 mm
05:42 -17.6 °C -18.9 °C 34327.3 hPa East 10.3 km/h 44.1 km/h 83 % 0 mm
05:47 -17.6 °C -18.9 °C 34327.3 hPa NNE 28.5 km/h 44.1 km/h 83 % 0 mm
05:52 -17.6 °C -18.9 °C 34313.7 hPa ENE 7.7 km/h 38.8 km/h 83 % 0 mm
06:02 -17.6 °C -19 °C 34327.3 hPa NNE 12.9 km/h 31.1 km/h 83 % 0 mm
06:12 -17.7 °C -19.1 °C 34327.3 hPa NE 5.1 km/h 33.6 km/h 83 % 0 mm
06:17 -17.7 °C -19 °C 34327.3 hPa SSE 12.9 km/h 33.6 km/h 84 % 0 mm
06:22 -17.7 °C -19.1 °C 34327.3 hPa NNE 7.7 km/h 31.1 km/h 83 % 0 mm
06:32 -17.7 °C -19 °C 34327.3 hPa ENE 15.6 km/h 31.1 km/h 84 % 0 mm
06:37 -17.7 °C -19.1 °C 34327.3 hPa East 7.7 km/h 31.1 km/h 84 % 0 mm
06:42 -17.7 °C -19.1 °C 34337.4 hPa Calm   33.6 km/h 84 % 0 mm
06:47 -17.8 °C -19.1 °C 34337.4 hPa ENE 7.7 km/h 33.6 km/h 84 % 0 mm
06:57 -17.8 °C -19.2 °C 34347.6 hPa SE 2.6 km/h 36.2 km/h 84 % 0 mm
07:07 -17.9 °C -19.1 °C 34347.6 hPa ESE 7.7 km/h 36.2 km/h 85 % 0 mm
07:12 -17.9 °C -19.1 °C 34347.6 hPa NE 12.9 km/h 20.8 km/h 85 % 0 mm
07:17 -17.9 °C -19.1 °C 34347.6 hPa NE 12.9 km/h 20.8 km/h 85 % 0 mm
07:22 -17.9 °C -19.1 °C 34347.6 hPa NE 18.2 km/h 25.9 km/h 85 % 0 mm
07:32 -17.9 °C -19.1 °C 34347.6 hPa NE 7.7 km/h 28.5 km/h 85 % 0 mm
07:42 -17.8 °C -19.1 °C 34347.6 hPa East 7.7 km/h 31.1 km/h 85 % 0 mm
07:52 -17.8 °C -19.1 °C 34361.1 hPa SE 5.1 km/h 33.6 km/h 85 % 0 mm
08:02 -17.7 °C -19 °C 34371.3 hPa NE 23.3 km/h 33.6 km/h 84 % 0 mm
08:12 -17.6 °C -19 °C 34384.8 hPa East 15.6 km/h 38.8 km/h 83 % 0 mm
08:22 -17.6 °C -18.9 °C 34395 hPa SE 10.3 km/h 51.8 km/h 83 % 0 mm
08:32 -17.6 °C -18.9 °C 34384.8 hPa NNE 23.3 km/h 51.8 km/h 83 % 0 mm
08:37 -17.6 °C -18.9 °C 34395 hPa ENE 12.9 km/h 51.8 km/h 83 % 0 mm
08:42 -17.6 °C -18.9 °C 34395 hPa SE 5.1 km/h 36.2 km/h 84 % 0 mm
08:52 -17.5 °C -18.8 °C 34395 hPa NE 18.2 km/h 38.8 km/h 84 % 0 mm
09:02 -17.5 °C -18.8 °C 34395 hPa East 7.7 km/h 31.1 km/h 84 % 0 mm
09:12 -17.4 °C -18.8 °C 34395 hPa ENE 7.7 km/h 36.2 km/h 84 % 0 mm
09:17 -17.4 °C -18.7 °C 34395 hPa ENE 10.3 km/h 36.2 km/h 84 % 0 mm
09:22 -17.3 °C -18.7 °C 34395 hPa NE 31.1 km/h 31.1 km/h 84 % 0 mm
09:32 -17.3 °C -18.7 °C 34405.1 hPa ENE 2.6 km/h 31.1 km/h 83 % 0 mm
09:42 -17.2 °C -18.6 °C 34405.1 hPa Calm   33.6 km/h 83 % 0 mm
09:47 -17.1 °C -18.6 °C 34418.7 hPa ENE 15.6 km/h 33.6 km/h 83 % 0 mm
09:52 -17.1 °C -18.5 °C 34418.7 hPa NE 15.6 km/h 31.1 km/h 83 % 0 mm
10:02 -17 °C -18.4 °C 34428.8 hPa ENE 5.1 km/h 28.5 km/h 83 % 0 mm
10:12 -16.9 °C -18.4 °C 34428.8 hPa East 15.6 km/h 36.2 km/h 83 % 0 mm
10:17 -16.9 °C -18.4 °C 34442.4 hPa ENE 18.2 km/h 36.2 km/h 82 % 0 mm
10:22 -16.9 °C -18.4 °C 34442.4 hPa NE 31.1 km/h 36.2 km/h 82 % 0 mm
10:27 -16.9 °C -18.3 °C 34442.4 hPa SE 5.1 km/h 36.2 km/h 83 % 0 mm
10:32 -16.9 °C -18.4 °C 34442.4 hPa NE 25.9 km/h 36.2 km/h 82 % 0 mm
10:37 -16.9 °C -18.4 °C 34442.4 hPa NNE 12.9 km/h 38.8 km/h 82 % 0 mm
10:42 -16.8 °C -18.3 °C 34442.4 hPa East 12.9 km/h 38.8 km/h 82 % 0 mm
10:47 -16.8 °C -18.3 °C 34452.6 hPa ESE 10.3 km/h 38.8 km/h 82 % 0 mm
10:52 -16.7 °C -18.1 °C 34452.6 hPa East 15.6 km/h 38.8 km/h 83 % 0 mm
10:57 -16.6 °C -18.1 °C 34452.6 hPa ESE 5.1 km/h 41.4 km/h 82 % 0 mm
11:02 -16.4 °C -18 °C 34452.6 hPa ENE 23.3 km/h 41.4 km/h 81 % 0 mm
11:07 -16.2 °C -17.9 °C 34452.6 hPa ENE 31.1 km/h 41.4 km/h 80 % 0 mm
11:12 -16 °C -17.8 °C 34452.6 hPa ENE 31.1 km/h 41.4 km/h 79 % 0 mm
11:17 -15.9 °C -17.7 °C 34452.6 hPa East 15.6 km/h 44.1 km/h 79 % 0 mm
11:22 -15.7 °C -17.7 °C 34452.6 hPa NE 28.5 km/h 44.1 km/h 78 % 0 mm
11:27 -15.7 °C -17.6 °C 34452.6 hPa ENE 23.3 km/h 44.1 km/h 78 % 0 mm
11:37 -15.6 °C -17.7 °C 34452.6 hPa NE 15.6 km/h 46.7 km/h 77 % 0 mm
11:42 -15.5 °C -17.6 °C 34452.6 hPa ESE 15.6 km/h 46.7 km/h 77 % 0 mm
11:47 -15.5 °C -17.6 °C 34452.6 hPa South 5.1 km/h 41.4 km/h 77 % 0 mm
11:52 -15.3 °C -17.4 °C 34452.6 hPa NE 28.5 km/h 41.4 km/h 77 % 0 mm
11:57 -15.2 °C -17.3 °C 34452.6 hPa ENE 20.8 km/h 44.1 km/h 76 % 0 mm
12:02 -15.2 °C -17.3 °C 34462.7 hPa NNE 18.2 km/h 44.1 km/h 76 % 0 mm
12:12 -15 °C -17.2 °C 34476.3 hPa NE 7.7 km/h 38.8 km/h 76 % 0 mm
12:17 -14.8 °C -17 °C 34476.3 hPa East 15.6 km/h 38.8 km/h 76 % 0 mm
12:22 -14.7 °C -16.9 °C 34476.3 hPa ENE 7.7 km/h 38.8 km/h 76 % 0 mm
12:32 -14.6 °C -17 °C 34476.3 hPa NE 15.6 km/h 36.2 km/h 74 % 0 mm
12:42 -14.4 °C -16.6 °C 34476.3 hPa NNE 25.9 km/h 33.6 km/h 76 % 0 mm
12:47 -14.3 °C -16.8 °C 34476.3 hPa NE 12.9 km/h 33.6 km/h 73 % 0 mm
12:52 -14.4 °C -16.9 °C 34476.3 hPa NNE 25.9 km/h 33.6 km/h 73 % 0 mm
12:57 -14.4 °C -16.7 °C 34476.3 hPa East 5.1 km/h 36.2 km/h 75 % 0 mm
13:02 -14.4 °C -16.8 °C 34476.3 hPa NE 20.8 km/h 36.2 km/h 74 % 0 mm
13:07 -14.6 °C -16.9 °C 34476.3 hPa ESE 7.7 km/h 38.8 km/h 74 % 0 mm
13:12 -14.6 °C -17 °C 34486.4 hPa NE 15.6 km/h 38.8 km/h 74 % 0 mm
13:17 -14.7 °C -16.9 °C 34486.4 hPa NE 23.3 km/h 38.8 km/h 75 % 0 mm
13:22 -14.6 °C -16.8 °C 34476.3 hPa East 10.3 km/h 38.8 km/h 76 % 0 mm
13:32 -14.3 °C -16.7 °C 34486.4 hPa ESE 10.3 km/h 31.1 km/h 74 % 0 mm
13:37 -14.2 °C -16.6 °C 34486.4 hPa NE 23.3 km/h 36.2 km/h 74 % 0 mm
13:42 -14.2 °C -16.6 °C 34486.4 hPa ENE 10.3 km/h 36.2 km/h 74 % 0 mm
13:47 -14.3 °C -16.7 °C 34486.4 hPa NE 12.9 km/h 36.2 km/h 74 % 0 mm
13:52 -14.4 °C -16.9 °C 34486.4 hPa NNE 20.8 km/h 31.1 km/h 73 % 0 mm
13:57 -14.4 °C -16.7 °C 34486.4 hPa SSE 7.7 km/h 28.5 km/h 75 % 0 mm
14:02 -14.4 °C -16.7 °C 34486.4 hPa NE 12.9 km/h 28.5 km/h 75 % 0 mm
14:07 -14.1 °C -16.3 °C 34486.4 hPa East 18.2 km/h 28.5 km/h 76 % 0 mm
14:12 -14 °C -16.5 °C 34486.4 hPa NE 10.3 km/h 28.5 km/h 73 % 0 mm
14:17 -14 °C -16.4 °C 34486.4 hPa NNE 15.6 km/h 31.1 km/h 74 % 0 mm
14:22 -13.9 °C -16.4 °C 34496.6 hPa ENE 23.3 km/h 31.1 km/h 73 % 0 mm
14:27 -14.2 °C -16.7 °C 34486.4 hPa East 20.8 km/h 28.5 km/h 73 % 0 mm
14:32 -14.1 °C -16.6 °C 34496.6 hPa East 10.3 km/h 28.5 km/h 73 % 0 mm
14:37 -14 °C -16.5 °C 34496.6 hPa ENE 25.9 km/h 36.2 km/h 73 % 0 mm
14:42 -14.1 °C -16.7 °C 34486.4 hPa ENE 15.6 km/h 36.2 km/h 72 % 0 mm
14:47 -13.9 °C -16.4 °C 34486.4 hPa NE 20.8 km/h 44.1 km/h 73 % 0 mm
14:52 -13.8 °C -16.4 °C 34486.4 hPa ENE 20.8 km/h 44.1 km/h 72 % 0 mm
14:57 -13.8 °C -16.7 °C 34496.6 hPa ENE 18.2 km/h 46.7 km/h 70 % 0 mm
15:02 -13.8 °C -16.6 °C 34496.6 hPa SE 12.9 km/h 46.7 km/h 70 % 0 mm
15:12 -13.7 °C -17.1 °C 34496.6 hPa NE 23.3 km/h 46.7 km/h 65 % 0 mm
15:17 -13.7 °C -16.7 °C 34496.6 hPa ENE 12.9 km/h 41.4 km/h 68 % 0 mm
15:22 -13.7 °C -17.1 °C 34496.6 hPa NE 18.2 km/h 41.4 km/h 65 % 0 mm
15:32 -13.6 °C -17.1 °C 34496.6 hPa NE 10.3 km/h 41.4 km/h 64 % 0 mm
15:37 -13.6 °C -17.3 °C 34496.6 hPa ENE 18.2 km/h 33.6 km/h 63 % 0 mm
15:42 -13.6 °C -17.1 °C 34496.6 hPa NE 10.3 km/h 33.6 km/h 64 % 0 mm
15:47 -13.6 °C -17.2 °C 34510.1 hPa ENE 28.5 km/h 33.6 km/h 63 % 0 mm
15:52 -13.6 °C -17.1 °C 34510.1 hPa ENE 28.5 km/h 33.6 km/h 64 % 0 mm
15:57 -13.5 °C -17.3 °C 34510.1 hPa NNE 25.9 km/h 31.1 km/h 62 % 0 mm
16:02 -13.6 °C -17.3 °C 34510.1 hPa NE 12.9 km/h 31.1 km/h 62 % 0 mm
16:07 -13.5 °C -17.2 °C 34510.1 hPa ENE 12.9 km/h 41.4 km/h 63 % 0 mm
16:12 -13.5 °C -17.2 °C 34510.1 hPa ENE 12.9 km/h 41.4 km/h 63 % 0 mm
16:17 -13.4 °C -17.1 °C 34510.1 hPa NE 23.3 km/h 41.4 km/h 63 % 0 mm
16:22 -13.4 °C -17.2 °C 34520.3 hPa NE 15.6 km/h 31.1 km/h 62 % 0 mm
16:27 -13.4 °C -17.4 °C 34520.3 hPa North 18.2 km/h 28.5 km/h 61 % 0 mm
16:32 -13.5 °C -17.4 °C 34520.3 hPa NE 15.6 km/h 28.5 km/h 61 % 0 mm
16:37 -13.6 °C -17.7 °C 34520.3 hPa NE 12.9 km/h 36.2 km/h 59 % 0 mm
16:42 -13.6 °C -17.9 °C 34520.3 hPa NE 15.6 km/h 36.2 km/h 58 % 0 mm
16:47 -13.7 °C -18.1 °C 34520.3 hPa ENE 12.9 km/h 36.2 km/h 57 % 0 mm
16:57 -13.7 °C -17.6 °C 34533.8 hPa North 23.3 km/h 38.8 km/h 61 % 0 mm
17:02 -13.7 °C -17.9 °C 34533.8 hPa NE 25.9 km/h 38.8 km/h 59 % 0 mm
17:12 -13.9 °C -17.9 °C 34533.8 hPa NE 15.6 km/h 36.2 km/h 60 % 0 mm
17:17 -13.9 °C -17.8 °C 34533.8 hPa NE 18.2 km/h 36.2 km/h 61 % 0 mm
17:22 -14 °C -17.9 °C 34544 hPa ENE 12.9 km/h 36.2 km/h 61 % 0 mm
17:27 -14 °C -18 °C 34544 hPa ENE 18.2 km/h 33.6 km/h 60 % 0 mm
17:32 -14.1 °C -17.9 °C 34544 hPa ENE 12.9 km/h 33.6 km/h 61 % 0 mm
17:37 -14.2 °C -18.1 °C 34544 hPa NE 7.7 km/h 25.9 km/h 61 % 0 mm
17:42 -14.3 °C -18 °C 34544 hPa ENE 12.9 km/h 25.9 km/h 62 % 0 mm
17:52 -14.5 °C -18.1 °C 34554.1 hPa ENE 12.9 km/h 28.5 km/h 63 % 0 mm
17:57 -14.6 °C -18.2 °C 34554.1 hPa ENE 10.3 km/h 28.5 km/h 63 % 0 mm
18:02 -14.8 °C -18.4 °C 34567.7 hPa ENE 20.8 km/h 28.5 km/h 63 % 0 mm
18:12 -15 °C -18.3 °C 34567.7 hPa ENE 5.1 km/h 25.9 km/h 65 % 0 mm
18:17 -15.1 °C -18.5 °C 34567.7 hPa ENE 7.7 km/h 25.9 km/h 64 % 0 mm
18:22 -15.2 °C -18.5 °C 34577.8 hPa NE 7.7 km/h 25.9 km/h 65 % 0 mm
18:32 -15.4 °C -18.4 °C 34591.4 hPa ENE 5.1 km/h 18.2 km/h 68 % 0 mm
18:42 -15.7 °C -18.6 °C 34591.4 hPa ENE 2.6 km/h 18.2 km/h 69 % 0 mm
18:47 -15.8 °C -18.6 °C 34601.5 hPa NE 7.7 km/h 12.9 km/h 70 % 0 mm
18:52 -15.9 °C -18.7 °C 34601.5 hPa ENE 5.1 km/h 12.9 km/h 70 % 0 mm
18:57 -15.9 °C -18.6 °C 34601.5 hPa ESE 2.6 km/h 12.9 km/h 71 % 0 mm
19:02 -16.1 °C -18.6 °C 34611.7 hPa NE 7.7 km/h 12.9 km/h 72 % 0 mm
19:12 -16.2 °C -18.7 °C 34611.7 hPa Calm   12.9 km/h 73 % 0 mm
19:17 -16.3 °C -18.8 °C 34611.7 hPa East 2.6 km/h 10.3 km/h 73 % 0 mm
19:22 -16.3 °C -18.7 °C 34625.2 hPa Calm   10.3 km/h 74 % 0 mm
19:27 -16.3 °C -18.8 °C 34625.2 hPa Calm   10.3 km/h 73 % 0 mm
19:32 -16.4 °C -18.7 °C 34625.2 hPa ENE 5.1 km/h 10.3 km/h 74 % 0 mm
19:37 -16.4 °C -18.7 °C 34625.2 hPa NE 7.7 km/h 10.3 km/h 74 % 0 mm
19:42 -16.4 °C -18.7 °C 34635.4 hPa NE 5.1 km/h 10.3 km/h 74 % 0 mm
19:47 -16.5 °C -18.7 °C 34635.4 hPa Calm   10.3 km/h 75 % 0 mm
19:52 -16.6 °C -18.8 °C 34635.4 hPa Calm   10.3 km/h 75 % 0 mm
19:57 -16.7 °C -18.8 °C 34645.6 hPa Calm   7.7 km/h 76 % 0 mm
20:02 -16.9 °C -18.9 °C 34645.6 hPa Calm   5.1 km/h 77 % 0 mm
20:07 -17.1 °C -18.9 °C 34645.6 hPa Calm   5.1 km/h 78 % 0 mm
20:12 -17.1 °C -18.9 °C 34645.6 hPa Calm   5.1 km/h 79 % 0 mm
20:17 -17.2 °C -18.9 °C 34659.1 hPa ENE 2.6 km/h 2.6 km/h 79 % 0 mm
20:22 -17.1 °C -18.8 °C 34659.1 hPa Calm   2.6 km/h 79 % 0 mm
20:27 -17.2 °C -18.9 °C 34659.1 hPa Calm   2.6 km/h 79 % 0 mm
20:32 -17.2 °C -18.9 °C 34659.1 hPa Calm   2.6 km/h 79 % 0 mm
20:37 -17.2 °C -18.9 °C 34645.6 hPa Calm   2.6 km/h 79 % 0 mm
20:42 -17.3 °C -19.1 °C 34659.1 hPa Calm   2.6 km/h 79 % 0 mm
20:47 -17.3 °C -19 °C 34659.1 hPa Calm   2.6 km/h 80 % 0 mm
20:52 -17.3 °C -19.1 °C 34659.1 hPa Calm   2.6 km/h 79 % 0 mm
20:57 -17.2 °C -18.9 °C 34659.1 hPa Calm   2.6 km/h 79 % 0 mm
21:02 -17.3 °C -19.1 °C 34659.1 hPa Calm   2.6 km/h 80 % 0 mm
21:07 -17.3 °C -19.1 °C 34659.1 hPa Calm   2.6 km/h 80 % 0 mm
21:12 -17.3 °C -19 °C 34659.1 hPa Calm   2.6 km/h 80 % 0 mm
21:17 -17.1 °C -18.9 °C 34669.3 hPa Calm   5.1 km/h 79 % 0 mm
21:22 -17.1 °C -18.9 °C 34669.3 hPa Calm   5.1 km/h 78 % 0 mm
21:27 -17.1 °C -19.1 °C 34669.3 hPa Calm   5.1 km/h 77 % 0 mm
21:32 -17.1 °C -19 °C 34669.3 hPa Calm   5.1 km/h 78 % 0 mm
21:37 -17.2 °C -19.1 °C 34669.3 hPa Calm   2.6 km/h 78 % 0 mm
21:42 -17.3 °C -19 °C 34669.3 hPa Calm   2.6 km/h 80 % 0 mm
21:47 -17.3 °C -19.1 °C 34669.3 hPa Calm   2.6 km/h 80 % 0 mm
21:52 -17.3 °C -19.1 °C 34669.3 hPa Calm   2.6 km/h 80 % 0 mm
21:57 -17.3 °C -19.1 °C 34669.3 hPa Calm   7.7 km/h 79 % 0 mm
22:12 -17.7 °C -19.3 °C 34669.3 hPa Calm   7.7 km/h 81 % 0 mm
22:17 -17.7 °C -19.2 °C 34669.3 hPa ENE 2.6 km/h 2.6 km/h 82 % 0 mm
22:22 -17.7 °C -19.2 °C 34659.1 hPa Calm   2.6 km/h 82 % 0 mm
22:27 -17.8 °C -19.3 °C 34659.1 hPa Calm   2.6 km/h 82 % 0 mm
22:32 -17.8 °C -19.3 °C 34659.1 hPa Calm   2.6 km/h 82 % 0 mm
22:37 -17.9 °C -19.4 °C 34659.1 hPa Calm   2.6 km/h 82 % 0 mm
22:42 -17.9 °C -19.4 °C 34659.1 hPa Calm   2.6 km/h 82 % 0 mm
22:47 -18 °C -19.4 °C 34659.1 hPa Calm     83 % 0 mm
22:52 -17.9 °C -19.3 °C 34669.3 hPa Calm     83 % 0 mm
22:57 -17.9 °C -19.4 °C 34669.3 hPa Calm     82 % 0 mm
23:02 -17.8 °C -19.4 °C 34682.8 hPa Calm   2.6 km/h 81 % 0 mm
23:07 -17.7 °C -19.3 °C 34682.8 hPa Calm   2.6 km/h 81 % 0 mm
23:12 -17.7 °C -19.3 °C 34682.8 hPa Calm   2.6 km/h 80 % 0 mm
23:17 -17.6 °C -19.2 °C 34682.8 hPa Calm   5.1 km/h 80 % 0 mm
23:22 -17.5 °C -19.3 °C 34682.8 hPa Calm   5.1 km/h 79 % 0 mm
23:32 -17.4 °C -19.2 °C 34682.8 hPa Calm   5.1 km/h 79 % 0 mm
23:37 -17.4 °C -19.2 °C 34682.8 hPa Calm   10.3 km/h 79 % 0 mm
23:42 -17.4 °C -19.3 °C 34682.8 hPa Calm   10.3 km/h 78 % 0 mm
23:47 -17.4 °C -19.3 °C 34693 hPa Calm   10.3 km/h 78 % 0 mm
23:52 -17.4 °C -19.2 °C 34682.8 hPa Calm   10.3 km/h 79 % 0 mm
23:57 -17.5 °C -19.3 °C 34682.8 hPa Calm   5.1 km/h 79 % 0 mm
Meteo18
Compliments of Weather Underground - 4 mb

Script developed by  Jim McMurry - jmcmurry@mwt.net Adapted for the template by  Wim van der Kuil - Leuven-Template.eu

You find our weather info also at:

European Weather Network

Weather Underground

Equipment we use:

Weather-station
Davis Vue

Weather-program
Meteobridge

Weather-server
Raspberry PI 2 B+

Provider
1 and 1

Davis Vue

Meteobridge

Raspberry PI 2 B+

1 and 1